Location: Kmicica-DOM
(53.1202°N, 23.2052°E)
Time: 03:23:55
(UTC+02:00)

USA 276 - Pass Details

Date: 16 August 2022
Orbit: 366 x 369 km, 50.0° (Epoch: 12 July)

Event Time Altitude Azimuth Distance (km) Brightness Sun altitude
Exits shadow 03:42:08 21° 224° (SW) 872 3.2 -11.7°
Maximum altitude 03:43:39 38° 168° (SSE) 577 2.7 -11.5°
Drops below altitude 10° 03:46:29 10° 98° (E) 1,349 5.4 -11.2°
Sets 03:48:35 0° 90° (E) 2,197 6.7 -10.9°
